AE5HO Weather Reports


Display with metric or nautical units.
time (UTC)temp
F
wind
direction
speed
MPH
gust
MPH
rain 1hr
in
rain 24hr
in
rain mn
in
humidity
%
barometer
mb
20260510044250 77 168 0.0 1.0 0.00 0.00 0.00 68 1008.8
20260510043746 77 180 0.0 1.0 0.00 0.00 0.00 68 1008.6
20260510043243 77 184 2.0 3.0 0.00 0.00 0.00 68 1008.7
20260510042740 77 185 1.0 2.0 0.00 0.00 0.00 68 1008.7
20260510042235 77 195 0.0 1.0 0.00 0.00 0.00 69 1009.0
20260510041733 77 185 0.0 2.0 0.00 0.00 0.00 69 1008.9
20260510041230 77 180 1.0 1.0 0.00 0.00 0.00 69 1009.2
20260510040727 77 174 0.0 0.0 0.00 0.00 0.00 68 1009.0
20260510040224 77 187 0.0 2.0 0.00 0.00 0.00 68 1009.1
20260510035719 77 180 0.0 2.0 0.00 0.00 0.00 68 1009.2
20260510035215 77 198 0.0 2.0 0.00 0.00 0.00 68 1009.2
20260510034711 77 194 0.0 0.0 0.00 0.00 0.00 68 1009.1
20260510034209 77 180 0.0 0.0 0.00 0.00 0.00 68 1009.1
20260510033705 77 180 1.0 1.0 0.00 0.00 0.00 67 1009.1
20260510033203 77 195 0.0 1.0 0.00 0.00 0.00 67 1009.3
20260510032659 77 180 1.0 1.0 0.00 0.00 0.00 68 1009.3
20260510032155 77 186 0.0 1.0 0.00 0.00 0.00 69 1009.4
20260510031649 77 279 0.0 0.0 0.00 0.00 0.00 68 1009.5
20260510031147 78 180 0.0 0.0 0.00 0.00 0.00 67 1009.2
20260510030646 78 195 0.0 1.0 0.00 0.00 0.00 66 1009.3
20260510030144 78 180 0.0 0.0 0.00 0.00 0.00 64 1009.3
20260510025641 79 180 0.0 0.0 0.00 0.00 0.00 64 1009.3
20260510025138 79 180 0.0 1.0 0.00 0.00 0.00 63 1009.4
20260510024635 79 180 0.0 0.0 0.00 0.00 0.00 62 1009.5
20260510024132 80 180 0.0 0.0 0.00 0.00 0.00 62 1009.2
20260510023628 80 180 0.0 0.0 0.00 0.00 0.00 61 1009.2
20260510023125 80 180 0.0 0.0 0.00 0.00 0.00 61 1009.1
20260510022625 80 191 0.0 2.0 0.00 0.00 0.00 61 1009.3
20260510022120 80 203 0.0 0.0 0.00 0.00 0.00 60 1008.9
20260510021616 80 270 0.0 1.0 0.00 0.00 0.00 59 1008.9
20260510021114 80 195 0.0 0.0 0.00 0.00 0.00 60 1009.0
20260510020608 81 192 0.0 1.0 0.00 0.00 0.00 59 1008.8
20260510020103 81 180 0.0 1.0 0.00 0.00 0.00 60 1008.9
20260510015559 81 203 0.0 0.0 0.00 0.00 0.00 59 1008.9
20260510015056 81 186 0.0 0.0 0.00 0.00 0.00 59 1008.7
20260510014552 82 186 0.0 1.0 0.00 0.00 0.00 59 1008.7
20260510014050 82 206 0.0 0.0 0.00 0.00 0.00 58 1008.7
20260510013544 82 194 0.0 1.0 0.00 0.00 0.00 59 1008.6
20260510013040 82 262 0.0 1.0 0.00 0.00 0.00 58 1008.7
20260510012539 82 195 0.0 0.0 0.00 0.00 0.00 59 1008.5
20260510012037 83 206 0.0 2.0 0.00 0.00 0.00 59 1008.5
20260510011536 83 261 0.0 1.0 0.00 0.00 0.00 59 1008.2
20260510011032 83 180 0.0 2.0 0.00 0.00 0.00 59 1008.1
20260510010529 84 198 0.0 3.0 0.00 0.00 0.00 59 1008.3
20260510010026 84 209 0.0 0.0 0.00 0.00 0.00 60 1008.1
20260510005521 84 261 0.0 2.0 0.00 0.00 0.00 59 1008.0
20260510005019 84 188 0.0 2.0 0.00 0.00 0.00 59 1007.8
20260510004517 85 286 0.0 0.0 0.00 0.00 0.00 59 1008.1
20260510004015 85 198 0.0 2.0 0.00 0.00 0.00 59 1008.0
20260510003511 86 203 0.0 2.0 0.00 0.00 0.00 58 1008.0
20260510003006 86 212 0.0 2.0 0.00 0.00 0.00 58 1007.8
20260510002502 86 312 2.0 2.0 0.00 0.00 0.00 57 1007.7
20260510001959 87 180 0.0 3.0 0.00 0.00 0.00 56 1007.8
20260510001457 87 257 0.0 3.0 0.00 0.00 0.00 56 1007.9
20260510000954 88 254 1.0 2.0 0.00 0.00 0.00 54 1007.9
20260510000450 90 180 0.0 3.0 0.00 0.00 0.00 54 1007.8
20260509235947 91 63 0.0 2.0 0.00 0.00 0.00 53 1008.0
20260509235443 92 209 0.0 2.0 0.00 0.00 0.00 52 1007.8
20260509234940 93 270 0.0 2.0 0.00 0.00 0.00 49 1008.0
20260509234437 94 276 0.0 2.0 0.00 0.00 0.00 44 1008.0
20260509233934 93 279 1.0 2.0 0.00 0.00 0.00 46 1007.7
20260509233432 91 262 1.0 2.0 0.00 0.00 0.00 49 1008.2
20260509232928 91 270 2.0 2.0 0.00 0.00 0.00 48 1008.1
20260509232425 90 261 1.0 3.0 0.00 0.00 0.00 50 1008.2
20260509231921 90 270 0.0 2.0 0.00 0.00 0.00 49 1008.0
20260509231418 91 257 0.0 2.0 0.00 0.00 0.00 48 1008.2
20260509230916 90 255 2.0 3.0 0.00 0.00 0.00 50 1008.2
20260509230413 91 270 0.0 3.0 0.00 0.00 0.00 50 1008.0
20260509225908 91 270 0.0 2.0 0.00 0.00 0.00 49 1008.0
20260509225406 91 337 0.0 1.0 0.00 0.00 0.00 44 1008.1
20260509224901 91 270 2.0 2.0 0.00 0.00 0.00 50 1008.1
20260509224357 89 264 2.0 3.0 0.00 0.00 0.00 51 1008.1
20260509223855 89 270 2.0 3.0 0.00 0.00 0.00 47 1008.0
20260509223351 91 270 0.0 2.0 0.00 0.00 0.00 50 1008.0
20260509222848 91 276 0.0 2.0 0.00 0.00 0.00 48 1008.1
20260509222348 91 276 0.0 3.0 0.00 0.00 0.00 48 1008.2
20260509221844 91 200 1.0 3.0 0.00 0.00 0.00 48 1008.2
20260509221342 90 192 0.0 2.0 0.00 0.00 0.00 46 1008.0
20260509220837 90 270 1.0 2.0 0.00 0.00 0.00 46 1007.9
20260509220333 90 186 0.0 0.0 0.00 0.00 0.00 45 1008.0
20260509215829 90 90 0.0 2.0 0.00 0.00 0.00 46 1008.3
20260509215326 90 188 0.0 1.0 0.00 0.00 0.00 46 1007.9
20260509214823 90 289 0.0 0.0 0.00 0.00 0.00 43 1008.2
20260509214320 89 185 0.0 2.0 0.00 0.00 0.00 47 1008.1
20260509213817 89 209 0.0 0.0 0.00 0.00 0.00 46 1008.3
20260509213312 89 74 0.0 2.0 0.00 0.00 0.00 49 1008.3
20260509212810 89 300 0.0 4.0 0.00 0.00 0.00 48 1008.3
20260509212308 89 32 0.0 3.0 0.00 0.00 0.00 49 1008.4
20260509211803 88 212 0.0 4.0 0.00 0.00 0.00 49 1008.5
20260509211259 88 289 2.0 3.0 0.00 0.00 0.00 49 1008.5
20260509210756 89 84 0.0 5.0 0.00 0.00 0.00 50 1008.8
20260509210254 89 71 2.0 5.0 0.00 0.00 0.00 52 1008.6
20260509205753 88 170 0.0 2.0 0.00 0.00 0.00 52 1008.9
20260509205248 89 9 2.0 3.0 0.00 0.00 0.00 50 1008.7
20260509204744 88 220 0.0 2.0 0.00 0.00 0.00 49 1009.0
20260509204241 88 338 2.0 2.0 0.00 0.00 0.00 53 1009.1
20260509203737 88 194 1.0 3.0 0.00 0.00 0.00 52 1009.1
20260509203235 88 73 2.0 3.0 0.00 0.00 0.00 53 1009.1
20260509202730 89 174 1.0 3.0 0.00 0.00 0.00 54 1009.3
20260509202226 88 180 0.0 2.0 0.00 0.00 0.00 54 1009.1
20260509201721 87 180 0.0 3.0 0.00 0.00 0.00 54 1009.4
20260509201218 87 175 0.0 2.0 0.00 0.00 0.00 56 1009.5
20260509200714 87 285 1.0 2.0 0.00 0.00 0.00 55 1009.7
20260509200209 87 0 0.0 3.0 0.00 0.00 0.00 51 1009.6
20260509195705 88 283 1.0 2.0 0.00 0.00 0.00 54 1009.7
20260509195201 87 261 0.0 3.0 0.00 0.00 0.00 57 1009.6
20260509194701 86 173 0.0 3.0 0.00 0.00 0.00 57 1009.7
20260509194158 87 60 0.0 2.0 0.00 0.00 0.00 57 1009.7
20260509193654 87 196 2.0 2.0 0.00 0.00 0.00 56 1009.6
20260509193149 87 70 2.0 2.0 0.00 0.00 0.00 58 1009.9
20260509192646 87 240 0.0 3.0 0.00 0.00 0.00 59 1009.8
20260509192141 87 180 0.0 3.0 0.00 0.00 0.00 61 1009.9
20260509191641 86 346 0.0 3.0 0.00 0.00 0.00 60 1010.3
20260509191138 86 195 0.0 2.0 0.00 0.00 0.00 61 1009.9
20260509190634 86 90 1.0 2.0 0.00 0.00 0.00 61 1009.9
20260509190132 86 277 0.0 3.0 0.00 0.00 0.00 65 1010.0
20260509185630 86 337 0.0 2.0 0.00 0.00 0.00 62 1010.1
20260509185125 86 187 0.0 2.0 0.00 0.00 0.00 66 1010.0
20260509184624 86 28 2.0 3.0 0.00 0.00 0.00 66 1010.0
20260509184120 86 53 0.0 2.0 0.00 0.00 0.00 66 1010.1
20260509183616 86 284 0.0 4.0 0.00 0.00 0.00 65 1010.2
20260509183112 86 79 0.0 4.0 0.00 0.00 0.00 66 1010.1
20260509182608 86 195 2.0 4.0 0.00 0.00 0.00 66 1010.1
20260509182105 86 206 1.0 1.0 0.00 0.00 0.00 65 1010.3
20260509181603 85 5 0.0 3.0 0.00 0.00 0.00 66 1010.4
20260509181100 85 233 0.0 2.0 0.00 0.00 0.00 67 1010.2
20260509180556 84 52 0.0 4.0 0.00 0.00 0.00 66 1010.4
20260509180054 85 48 3.0 3.0 0.00 0.00 0.00 67 1010.3
20260509175549 85 235 0.0 2.0 0.00 0.00 0.00 67 1010.5
20260509175046 84 65 2.0 4.0 0.00 0.00 0.00 67 1010.4
20260509174542 86 195 2.0 3.0 0.00 0.00 0.00 66 1010.5
20260509174038 85 111 1.0 3.0 0.00 0.00 0.00 65 1010.3
20260509173538 85 190 0.0 2.0 0.00 0.00 0.00 67 1010.6
20260509173034 85 270 0.0 3.0 0.00 0.00 0.00 64 1010.6
20260509172531 86 209 0.0 2.0 0.00 0.00 0.00 64 1010.6
20260509172027 86 67 3.0 3.0 0.00 0.00 0.00 65 1010.8
20260509171523 86 176 0.0 2.0 0.00 0.00 0.00 63 1010.9
20260509171020 85 76 3.0 3.0 0.00 0.00 0.00 63 1010.9
20260509170515 84 303 0.0 5.0 0.00 0.00 0.00 66 1010.9
20260509170012 84 303 2.0 3.0 0.00 0.00 0.00 65 1010.8
20260509165510 84 209 0.0 4.0 0.00 0.00 0.00 64 1010.9
20260509165006 84 78 2.0 4.0 0.00 0.00 0.00 64 1010.8
20260509164502 84 160 1.0 4.0 0.00 0.00 0.00 65 1011.0
20260509163958 83 180 0.0 4.0 0.00 0.00 0.00 64 1011.0
20260509163456 83 348 0.0 6.0 0.00 0.00 0.00 65 1011.1
20260509162954 83 79 3.0 5.0 0.00 0.00 0.00 66 1010.9
20260509162454 82 173 0.0 4.0 0.00 0.00 0.00 66 1010.9
20260509161949 83 90 1.0 3.0 0.00 0.00 0.00 66 1011.1
20260509161446 83 348 1.0 5.0 0.00 0.00 0.00 66 1010.7
20260509160941 83 255 0.0 4.0 0.00 0.00 0.00 67 1010.8
20260509160438 82 251 2.0 3.0 0.00 0.00 0.00 67 1010.7
20260509155932 82 336 2.0 5.0 0.00 0.00 0.00 66 1010.9
20260509155429 82 190 2.0 3.0 0.00 0.00 0.00 66 1010.8
20260509154926 82 175 2.0 5.0 0.00 0.00 0.00 66 1010.8
20260509154422 81 175 2.0 4.0 0.00 0.00 0.00 67 1010.8
20260509153920 81 69 1.0 4.0 0.00 0.00 0.00 67 1010.8
20260509153416 81 180 0.0 3.0 0.00 0.00 0.00 69 1010.8
20260509152913 80 180 0.0 4.0 0.00 0.00 0.00 71 1010.9
20260509152409 79 306 0.0 3.0 0.00 0.00 0.00 73 1010.9
20260509151907 79 180 3.0 5.0 0.00 0.00 0.00 73 1010.9
20260509151402 78 132 2.0 5.0 0.00 0.00 0.00 73 1011.0
20260509150901 78 199 0.0 3.0 0.00 0.00 0.00 74 1011.0
20260509150358 78 61 2.0 3.0 0.00 0.00 0.00 76 1011.0
20260509145856 77 146 2.0 3.0 0.00 0.00 0.00 77 1011.0
20260509145350 77 228 0.0 4.0 0.00 0.00 0.00 77 1011.1
20260509144847 77 117 0.0 4.0 0.00 0.00 0.00 78 1010.9
20260509144344 77 245 2.0 3.0 0.00 0.00 0.00 79 1011.1
20260509143841 76 194 1.0 3.0 0.00 0.00 0.00 80 1010.8
20260509143338 75 75 0.0 3.0 0.00 0.00 0.00 82 1010.8
20260509142834 75 81 0.0 4.0 0.00 0.00 0.00 82 1011.0
20260509142331 74 78 0.0 3.0 0.00 0.00 0.00 84 1010.9
20260509141826 74 90 0.0 4.0 0.00 0.00 0.00 83 1011.0
20260509141328 74 270 0.0 3.0 0.00 0.00 0.00 84 1011.0
20260509140820 74 0 0.0 2.0 0.00 0.00 0.00 84 1011.0
20260509140317 74 180 0.0 6.0 0.00 0.00 0.00 84 1010.8
20260509135815 74 161 3.0 3.0 0.00 0.00 0.00 85 1010.9
20260509135312 73 180 0.0 1.0 0.00 0.00 0.00 85 1010.9
20260509134809 73 71 3.0 3.0 0.00 0.00 0.00 86 1010.9
20260509134306 73 270 0.0 2.0 0.00 0.00 0.00 87 1011.0
20260509133804 72 188 0.0 4.0 0.00 0.00 0.00 88 1010.8
20260509133300 72 31 3.0 3.0 0.00 0.00 0.00 89 1010.7
20260509132759 71 297 2.0 3.0 0.00 0.00 0.00 89 1010.7
20260509132257 71 160 1.0 4.0 0.00 0.00 0.00 90 1010.5
20260509131753 70 90 0.0 2.0 0.00 0.00 0.00 91 1010.4
20260509131250 70 15 2.0 5.0 0.00 0.00 0.00 91 1010.7
20260509130746 70 283 0.0 3.0 0.00 0.00 0.00 92 1010.7
20260509130242 69 66 0.0 3.0 0.00 0.00 0.00 93 1010.6
20260509125739 69 343 2.0 5.0 0.00 0.00 0.00 93 1010.7
20260509125236 69 334 0.0 3.0 0.00 0.00 0.00 93 1010.6
20260509124732 68 348 0.0 4.0 0.00 0.00 0.00 94 1010.7
20260509124229 68 160 1.0 4.0 0.00 0.00 0.00 94 1010.6
20260509123727 68 114 1.0 6.0 0.00 0.00 0.00 94 1010.7
20260509123224 68 331 0.0 3.0 0.00 0.00 0.00 94 1010.9
20260509122720 68 112 2.0 7.0 0.00 0.00 0.00 94 1010.3
20260509122217 68 337 0.0 3.0 0.00 0.00 0.00 95 1010.6
20260509121713 68 270 0.0 3.0 0.00 0.00 0.00 95 1010.6
20260509121211 68 121 0.0 3.0 0.00 0.00 0.00 95 1010.6
20260509120709 68 11 2.0 3.0 0.00 0.00 0.00 95 1010.5
20260509120207 68 0 0.0 4.0 0.00 0.00 0.00 95 1010.2
20260509115704 68 279 3.0 5.0 0.00 0.00 0.00 95 1010.4
20260509115201 67 270 0.0 4.0 0.00 0.00 0.00 94 1010.2
20260509114700 68 4 3.0 5.0 0.00 0.00 0.00 94 1010.5
20260509114158 68 279 0.0 3.0 0.00 0.00 0.00 93 1010.3
20260509113656 68 352 2.0 3.0 0.00 0.00 0.00 93 1010.1
20260509113153 68 331 3.0 3.0 0.00 0.00 0.00 92 1010.2
20260509112649 68 285 3.0 6.0 0.00 0.00 0.00 92 1009.7
20260509112147 68 345 4.0 5.0 0.00 0.00 0.00 92 1009.8
20260509111644 67 293 2.0 2.0 0.00 0.00 0.00 92 1009.7
20260509111140 67 334 0.0 0.0 0.00 0.00 0.00 93 1009.6
20260509110637 66 173 0.0 1.0 0.00 0.00 0.00 94 1009.4
20260509110134 66 90 0.0 0.0 0.00 0.00 0.00 93 1009.3
20260509105633 67 8 0.0 0.0 0.00 0.00 0.00 93 1009.0
20260509105130 67 82 0.0 0.0 0.00 0.00 0.00 93 1009.0
20260509104627 67 270 0.0 0.0 0.00 0.00 0.00 93 1009.0
20260509104124 67 270 0.0 0.0 0.00 0.00 0.00 93 1008.9
20260509103622 68 270 0.0 0.0 0.00 0.00 0.00 93 1008.7
20260509103119 68 270 0.0 0.0 0.00 0.00 0.00 93 1008.9
20260509102616 68 270 0.0 0.0 0.00 0.00 0.00 93 1008.9
20260509102114 68 270 0.0 0.0 0.00 0.00 0.00 92 1008.9
20260509101609 68 270 0.0 0.0 0.00 0.00 0.00 92 1008.6
20260509101106 69 270 0.0 0.0 0.00 0.00 0.00 92 1008.9
20260509100603 69 99 0.0 0.0 0.00 0.00 0.00 91 1008.6
20260509100101 69 99 0.0 0.0 0.00 0.00 0.00 91 1008.9
20260509095557 69 84 0.0 2.0 0.00 0.00 0.00 91 1008.9
20260509095055 69 254 0.0 0.0 0.00 0.00 0.00 90 1008.8
20260509094551 69 74 0.0 0.0 0.00 0.00 0.00 90 1008.3
20260509094048 70 74 0.0 0.0 0.00 0.00 0.00 90 1008.2
20260509093547 70 73 0.0 2.0 0.00 0.00 0.00 90 1008.2
20260509093044 70 270 0.0 0.0 0.00 0.00 0.00 90 1008.3
20260509092541 70 234 0.0 1.0 0.00 0.00 0.00 90 1008.4
20260509092040 70 106 0.0 0.0 0.00 0.00 0.00 90 1008.0
20260509091537 70 195 0.0 0.0 0.00 0.00 0.00 90 1008.0
20260509091034 70 71 0.0 1.0 0.00 0.00 0.00 91 1008.2
20260509090531 71 270 0.0 1.0 0.00 0.00 0.00 91 1008.5
20260509090029 71 83 1.0 1.0 0.00 0.00 0.00 91 1008.5
20260509085526 71 254 0.0 1.0 0.00 0.00 0.00 91 1008.5
20260509085022 71 276 0.0 4.0 0.00 0.00 0.00 91 1008.2
20260509084519 70 90 0.0 2.0 0.00 0.00 0.00 91 1006.9
20260509084016 70 90 0.0 3.0 0.00 0.00 0.00 91 1006.8
20260509083513 70 74 1.0 2.0 0.00 0.00 0.00 91 1006.5
20260509083010 71 196 0.0 5.0 0.00 0.00 0.00 91 1006.0
20260509082507 71 270 1.0 4.0 0.00 0.00 0.00 91 1006.3
20260509082004 71 77 2.0 3.0 0.00 0.00 0.00 91 1006.6
20260509081501 71 190 2.0 4.0 0.00 0.00 0.00 91 1006.9
20260509080958 71 217 3.0 3.0 0.00 0.00 0.00 91 1007.1
20260509080456 71 180 0.0 4.0 0.00 0.00 0.00 91 1007.7
20260509075954 71 231 2.0 6.0 0.00 0.00 0.00 91 1008.2
20260509075451 71 263 3.0 4.0 0.00 0.00 0.00 91 1008.4
20260509074949 71 243 0.0 2.0 0.00 0.00 0.00 91 1008.7
20260509074446 71 270 3.0 3.0 0.00 0.00 0.00 91 1009.0
20260509073942 70 258 2.0 3.0 0.00 0.00 0.00 91 1009.4
20260509073438 70 235 3.0 3.0 0.00 0.00 0.00 92 1009.5
20260509072935 70 264 0.0 2.0 0.00 0.00 0.00 92 1009.3
20260509072432 70 254 2.0 2.0 0.00 0.00 0.00 92 1009.6
20260509071929 70 209 0.0 3.0 0.00 0.00 0.00 92 1009.8
20260509071425 70 229 2.0 3.0 0.00 0.00 0.00 93 1010.3
20260509070923 69 239 2.0 4.0 0.00 0.00 0.00 93 1010.2
20260509070420 69 203 1.0 3.0 0.00 0.00 0.00 93 1010.3
20260509065915 69 166 1.0 3.0 0.00 0.00 0.00 93 1010.1
20260509065411 69 249 0.0 4.0 0.00 0.00 0.00 93 1010.7
20260509064908 69 264 1.0 3.0 0.00 0.00 0.00 93 1010.8
20260509064406 69 245 0.0 3.0 0.00 0.00 0.00 94 1010.7
20260509063903 69 180 0.0 2.0 0.00 0.00 0.00 94 1010.5
20260509063359 69 255 2.0 4.0 0.00 0.00 0.00 94 1010.8
20260509062856 69 101 2.0 2.0 0.00 0.00 0.00 94 1010.7
20260509062353 69 270 1.0 2.0 0.00 0.00 0.00 94 1010.8
20260509061850 69 270 0.0 2.0 0.00 0.00 0.00 93 1010.8
20260509061349 68 200 0.0 2.0 0.00 0.00 0.00 93 1010.6
20260509060845 68 270 0.0 2.0 0.00 0.00 0.00 93 1010.4
20260509060342 68 90 0.0 0.0 0.00 0.00 0.00 93 1011.0
20260509055837 68 270 0.0 0.0 0.00 0.00 0.00 93 1010.8
20260509055333 68 257 0.0 1.0 0.00 0.00 0.00 92 1010.5
20260509054830 69 188 0.0 0.0 0.00 0.00 0.00 92 1010.7
20260509054327 69 188 0.0 0.0 0.00 0.00 0.00 91 1010.7
20260509053825 69 188 0.0 1.0 0.00 0.00 0.00 91 1011.2
20260509053322 69 81 0.0 0.0 0.00 0.00 0.00 90 1011.8
20260509052821 70 90 0.0 2.0 0.00 0.00 0.00 90 1011.2
20260509052318 70 246 0.0 0.0 0.00 0.00 0.00 89 1011.2
20260509051815 70 180 0.0 0.0 0.00 0.00 0.00 89 1011.6
20260509051313 70 180 0.0 0.0 0.00 0.00 0.00 89 1011.7
20260509050809 70 270 0.0 2.0 0.00 0.00 0.00 89 1011.7
20260509050306 70 270 0.0 2.0 0.00 0.00 0.00 90 1011.7
20260509045803 69 90 2.0 2.0 0.00 0.96 0.96 90 1011.1
20260509045300 69 270 0.0 0.0 0.00 0.96 0.96 90 1010.6
20260509044757 70 270 0.0 0.0 0.00 0.96 0.96 89 1010.6